Flag for Germany Weather past 2 weeks in Achern, Baden-Württemberg, Germany

Now
41 °F

Light rain. Broken clouds.


Feels Like: 36 °F
Forecast: 28 / 45 °F
Wind: 7 mph from Northwest

Location: Karlsruhe - Baden Wurttemberg

Current Time: Feb 27, 2015 at 2:42:09 PM

Latest Report: Feb 27, 2015 at 2:20 PM


Visibility: 5 mi

Pressure: 29.95 "Hg

Humidity: 87%

Dew point: 37 °F

Location of AchernLocation

Historic Weather in Achern — Graph

°F

Achern temperature yesterday

Maximum temperature yesterday: 54 °F (at 3:20 PM)
Minimum temperature yesterday: 34 °F (at 4:20 AM)
Average temperature yesterday: 44 °F

Past Weeks' High & Low Weather Summary

 TemperatureHumidityPressure
High57 °F (Feb 20, 1:50 PM)100% (Feb 12, 5:50 PM)30.72 "Hg (Feb 12, 5:50 PM)
Low23 °F (Feb 20, 5:20 AM)31% (Feb 20, 3:50 PM)29.50 "Hg (Feb 21, 6:20 AM)
Average37 °F81%30.04 "Hg
* Reported Feb 12 1:20 PM — Feb 27 1:20 PM, Achern, Weather by CustomWeather, © 2015

Note: Actual official high and low records may vary slightly from our data, if they occured in-between our weather recording intervals... More about our weather records

Advertising

Achern weather history for previous 24 hours

 ConditionsComfort  
Time TempWeatherWind HumidityBarometerVisibility
1:20 PM
Fri, Feb 27
41 °FLight rain. Partly sunny.2 mph93%29.92 "Hg4 mi
12:50 PM41 °FRain. Partly sunny.2 mph93%29.89 "Hg4 mi
12:20 PM41 °FLow clouds.3 mph87%29.89 "Hg4 mi
11:50 AM41 °FLight rain. Partly sunny.1 mph87%29.89 "Hg4 mi
11:20 AM39 °FLight rain. Low clouds.2 mph93%29.86 "Hg4 mi
10:50 AM39 °FLight rain. Overcast.2 mph93%29.86 "Hg5 mi
10:20 AM39 °FLight rain. Overcast.5 mph87%29.86 "Hg5 mi
9:50 AM39 °FFog.3 mph93%29.83 "Hg3 mi
9:20 AM39 °FPartly sunny.2 mph93%29.83 "Hg4 mi
8:50 AM39 °FLight rain. Broken clouds.3 mph93%29.80 "Hg4 mi
8:20 AM39 °FLight rain. Partly sunny.2 mph93%29.80 "Hg6 mi
7:50 AM39 °FLight rain. Partly sunny.2 mph93%29.80 "Hg6 mi
7:20 AM39 °FLight rain. Partly sunny.3 mph93%29.77 "Hg6 mi
6:50 AM39 °FLight rain. Passing clouds.2 mph93%29.77 "Hg6 mi
6:20 AM39 °FLight rain. Passing clouds.2 mph93%29.77 "HgN/A
5:50 AM39 °FLight rain. Passing clouds.1 mph87%29.77 "Hg6 mi
5:20 AM39 °FLight rain. Passing clouds.5 mph87%29.77 "HgN/A
4:20 AM41 °FLight rain. Passing clouds.6 mph76%29.80 "HgN/A
10:50 PM
Thu, Feb 26
43 °FClear.No wind66%29.89 "Hg10 mi
10:20 PM45 °FClear.1 mph57%29.92 "Hg10 mi
9:50 PM45 °FClear.3 mph57%29.92 "Hg10 mi
9:20 PM45 °FClear.2 mph57%29.95 "Hg10 mi
8:50 PM45 °FClear.2 mph57%29.95 "Hg10 mi
8:20 PM46 °FClear.5 mph53%29.95 "Hg10 mi
7:50 PM46 °FClear.3 mph50%29.98 "Hg10 mi
7:20 PM48 °FClear.3 mph37%29.98 "Hg10 mi
6:50 PM48 °FClear.6 mph37%29.98 "Hg10 mi
6:20 PM46 °FClear.6 mph46%29.98 "Hg10 mi
5:50 PM50 °FSunny.3 mph40%30.01 "Hg10 mi
5:20 PM50 °FSunny.2 mph43%30.01 "Hg10 mi
4:50 PM52 °FSunny.3 mph41%30.01 "Hg10 mi
4:20 PM52 °FSunny.3 mph38%30.01 "Hg10 mi
3:50 PM54 °FSunny.3 mph38%30.01 "Hg10 mi
3:20 PM54 °FSunny.2 mph38%30.04 "Hg6 mi
2:50 PM52 °FPassing clouds.6 mph38%30.04 "HgN/A
2:20 PM52 °FPassing clouds.6 mph38%30.07 "HgN/A
Weather by CustomWeather, © 2015

See weather overviewHow to use our weather pages